Location: Crescent
(42.8242°N, 73.7329°W)
Time: 07:34:43
(UTC+00:00)

Vanguard 1 - Pass Details

Date: 17 February 2026
Orbit: 653 x 3818 km, 34.2° (Epoch: 12 March)

Event Time Altitude Azimuth Distance (km) Brightness Sun altitude
Rises 02:02:49 0° 280° (W) 6,753 15.2 -39.4°
Reaches altitude 10° 02:07:06 10° 274° (W) 6,070 14.7 -40.1°
Maximum altitude 02:25:54 45° 211° (SSW) 4,621 13.2 -43.2°
Enters shadow 02:32:19 39° 181° (S) 4,894 13.2 -44.2°
Drops below altitude 10° 02:46:20 10° 148° (SSE) 6,496 - -46.4°
Sets 02:51:13 0° 142° (SE) 7,234 - -47.2°
